{"data":{"norad_id":64509,"epoch":"2026-09-21T21:52:00.712704Z","epoch_age_seconds":59804,"freshness":"FRESH","line1":"1 64509U 25134K   26264.91111936 -.00000090  00000+0  17146-4 0  9992","line2":"2 64509  51.9006  80.3429 0000644 102.9728 257.1306 14.79931137 69202","mean_motion":14.79931137,"eccentricity":6.44e-5,"inclination_deg":51.9006,"raan_deg":80.3429,"arg_perigee_deg":102.9728,"mean_anomaly_deg":257.1306,"bstar":1.7146e-5,"rev_number":6920,"period_min":97.301824659156,"perigee_km":629.09021571445,"apogee_km":629.99280470657,"semimajor_km":7007.6785102105,"source":"CELESTRAK","updated_at":"2026-09-22T09:00:29.808375Z"}}